Theta_e
323 322 317 316 321 323 329 332 332 332 331 331 334 336 343 345 352 358 351 354 357 359 357 350 340 341 342 345 345 346 339 330 328 330 332 333 334 339 343 345 343 340 340 341 340 341 340 328 325
324 316 315 317 317 322 327 328 332 332 331 331 331 332 336 339 342 351 352 353 358 359 358 352 339 341 343 345 346 344 335 332 329 328 330 334 335 340 345 345 345 342 339 335 337 337 332 326 326
320 316 318 316 317 318 324 327 328 331 330 330 331 331 336 345 348 349 352 354 357 359 357 352 338 340 343 345 346 343 337 337 332 327 329 333 334 338 342 343 344 341 337 329 326 325 325 326 329
317 317 318 318 318 318 319 324 325 327 331 330 330 330 335 355 354 353 354 354 357 357 355 352 338 337 339 343 345 343 341 341 334 328 330 333 334 336 339 338 335 335 335 334 332 330 326 329 331
316 319 320 319 320 320 319 320 322 324 327 330 329 330 331 349 352 356 355 356 357 356 355 350 337 334 334 338 343 342 342 341 336 329 330 332 335 337 337 336 335 334 334 335 336 332 328 329 329
318 317 318 320 320 321 321 320 319 322 324 326 325 328 329 351 356 357 357 357 356 355 355 349 336 332 331 333 337 338 339 339 336 329 330 333 336 337 338 337 336 335 334 334 330 329 327 329 330
322 320 319 320 321 321 321 320 319 319 322 325 324 324 329 348 357 359 358 357 356 355 353 350 344 336 330 330 331 331 333 334 331 328 330 334 336 337 336 334 335 335 332 329 327 326 327 332 335
320 322 322 321 321 320 321 319 319 319 319 322 322 320 324 333 356 359 357 356 356 355 353 349 346 342 343 339 328 327 327 328 327 327 332 335 335 336 335 336 333 331 330 329 326 326 328 333 336
318 321 320 320 321 320 320 318 318 319 319 320 320 319 324 347 355 358 358 357 356 355 353 349 346 342 340 341 338 329 326 326 328 332 334 336 339 340 338 339 334 332 332 331 330 330 333 334 332
316 318 317 318 320 320 320 319 318 317 318 319 319 320 320 338 349 355 359 357 356 355 354 350 346 344 342 342 343 339 338 336 336 338 340 338 342 341 338 339 333 333 333 333 332 330 328 326 335
314 316 316 317 320 321 320 320 319 318 319 319 319 321 321 331 343 348 354 357 357 355 354 352 349 347 344 342 341 340 339 338 337 339 341 342 344 344 339 341 337 338 331 336 333 337 338 340 339
312 313 314 316 319 319 319 320 321 319 319 320 320 321 321 328 343 346 350 356 357 356 355 354 352 349 346 344 343 343 342 341 341 341 344 345 343 343 340 339 338 339 337 339 339 340 344 345 345
312 312 312 313 315 316 318 319 319 320 320 321 321 321 321 323 334 350 352 353 357 356 356 355 354 351 348 347 345 345 345 345 344 343 344 342 339 341 341 340 337 336 338 341 342 345 347 348 348
311 312 312 313 312 314 316 317 318 319 319 319 320 321 322 323 324 339 352 354 357 356 355 354 354 353 350 349 347 346 346 345 345 345 344 342 340 341 338 339 338 337 341 345 346 347 349 349 349
313 313 313 313 313 314 313 313 315 316 318 319 321 321 321 322 323 327 347 352 357 356 355 354 354 354 352 350 349 348 347 345 345 345 346 344 343 343 337 336 336 338 346 349 348 350 350 350 348
312 312 313 312 314 313 313 312 313 314 316 317 318 321 321 322 323 323 326 350 355 356 356 353 354 354 354 351 351 349 348 346 345 346 347 346 344 342 341 336 334 341 346 347 349 351 349 347 346
313 314 312 312 313 314 314 313 313 314 316 317 318 319 320 320 321 322 327 343 353 355 355 352 355 354 354 352 352 351 350 348 346 346 347 347 344 341 338 338 339 348 348 350 349 348 347 345 339
312 313 312 312 312 312 314 314 313 315 316 317 318 319 320 321 321 321 335 346 353 355 354 355 355 354 354 353 352 350 350 349 347 347 347 348 343 341 340 344 346 349 348 347 347 346 342 337 333
314 313 314 314 314 312 314 316 315 315 315 317 319 320 321 321 322 321 342 350 354 355 354 354 354 354 353 351 348 348 347 348 347 347 347 346 343 341 341 342 348 348 346 345 343 343 341 332 330
316 316 316 316 315 315 315 314 313 315 316 318 319 320 322 322 323 324 347 352 354 355 355 354 353 353 350 348 347 345 346 347 346 345 346 345 345 346 346 346 344 340 335 334 331 333 336 334 334
317 317 316 316 316 316 315 315 315 314 313 315 317 319 321 323 323 331 349 355 356 356 355 354 352 349 348 348 348 348 348 349 348 348 347 347 346 344 341 339 337 332 331 331 330 330 330 335 335
318 316 316 315 315 319 316 319 316 315 315 313 315 318 320 322 323 334 352 358 357 356 355 353 351 352 350 348 347 347 344 346 345 344 341 339 338 338 337 337 335 333 333 332 330 330 330 328 330
317 316 317 318 318 316 317 317 316 315 314 313 314 317 320 322 323 331 353 356 355 355 353 352 351 350 349 347 347 348 344 340 338 338 337 334 334 334 333 332 332 331 333 332 331 328 320 321 321
316 318 319 318 318 324 318 318 317 315 315 314 316 315 319 322 323 329 350 354 355 354 353 352 351 349 348 348 349 343 341 338 336 335 334 333 332 332 332 330 330 331 330 329 321 317 316 319 321
316 322 324 325 324 321 315 316 317 314 314 316 316 317 319 322 324 329 351 355 355 354 353 352 350 349 348 350 346 343 340 340 340 339 335 332 332 332 330 331 331 330 324 320 320 320 321 321 320
319 319 322 325 321 317 315 315 315 315 314 316 317 319 319 323 324 331 349 353 354 353 352 348 349 350 348 346 346 345 344 344 341 335 332 331 331 327 330 327 324 320 317 318 316 319 319 319 319
320 321 318 320 317 318 315 315 314 315 314 314 319 319 320 324 324 338 349 352 352 352 349 349 349 348 346 347 347 346 345 341 337 335 334 328 327 325 324 320 319 316 317 318 318 319 319 318 318
318 317 323 321 319 320 315 314 313 315 314 314 318 322 323 324 328 343 350 353 351 348 348 349 348 348 346 347 346 342 339 336 332 330 328 329 327 324 320 318 316 317 316 316 316 316 317 317 317
319 319 319 317 316 321 316 314 316 313 315 314 318 322 324 324 336 347 349 347 344 345 347 348 349 345 346 344 338 334 334 331 330 328 330 327 323 320 318 318 317 317 316 315 317 317 317 318 318
316 317 317 322 319 316 317 319 321 313 316 316 320 322 324 326 343 345 340 339 340 342 342 342 342 342 334 332 331 331 332 331 328 327 325 322 320 318 317 316 315 314 314 316 317 317 317 318 318
Wind_Speed
4 4 5 7 7 8 17 19 10 8 10 6 4 7 5 8 4 3 7 12 20 26 28 31 31 30 31 32 34 33 31 30 29 30 31 31 30 28 26 23 20 19 17 16 15 12 10 9 9
6 5 7 4 9 15 16 19 14 15 8 4 6 9 13 10 5 5 8 17 24 27 27 28 33 32 33 34 34 33 33 31 29 29 31 30 29 28 25 21 18 17 16 14 12 10 9 9 9
6 8 6 6 13 20 18 14 13 14 6 8 5 4 7 1 2 3 6 25 29 30 29 29 35 33 34 34 34 34 33 30 28 28 30 29 28 25 23 19 16 15 14 12 11 10 10 10 9
8 7 5 11 20 19 23 13 5 14 15 10 11 8 4 7 1 3 18 24 30 31 31 31 38 34 33 33 34 33 32 29 27 27 28 28 26 23 21 18 16 15 13 12 11 9 9 8 7
10 5 13 17 24 22 12 19 7 14 17 15 12 18 6 6 2 12 21 25 28 29 29 31 37 34 32 32 33 32 30 28 26 27 28 27 25 22 20 17 14 13 12 11 10 8 6 7 7
8 7 14 20 23 21 18 18 15 15 13 11 8 15 9 5 5 12 18 23 26 28 28 31 35 33 33 31 31 30 29 27 26 26 27 26 23 21 18 15 12 11 10 9 8 8 7 7 7
17 12 20 23 22 22 20 17 19 19 18 16 4 9 4 7 7 12 17 23 25 26 29 28 28 31 32 31 30 28 27 26 26 26 26 24 21 18 15 13 11 9 8 8 8 8 8 7 6
12 15 24 24 22 24 15 15 16 22 23 17 8 7 10 8 10 14 18 23 25 26 27 28 28 26 24 25 28 27 26 25 26 26 25 23 19 16 13 11 10 9 8 8 7 7 7 6 5
13 14 20 25 24 17 15 13 15 11 19 21 22 19 5 8 12 15 20 23 25 27 28 29 29 27 25 22 23 25 25 25 25 24 23 19 14 13 11 10 10 9 8 7 7 6 5 6 5
15 16 28 20 15 12 19 16 14 13 16 19 15 15 8 13 14 16 20 24 28 30 30 30 30 28 26 23 21 20 20 21 20 19 18 16 13 13 12 10 10 9 7 6 6 5 5 3 5
15 24 21 18 15 16 19 21 13 17 18 17 20 16 11 10 16 17 20 26 30 30 29 30 29 28 27 24 24 21 20 19 19 19 19 15 13 12 10 9 8 7 7 5 4 4 3 4 4
19 21 20 23 11 10 17 18 19 18 20 11 14 14 1 10 13 15 19 25 28 30 28 28 28 27 26 24 24 22 20 19 18 18 18 15 13 12 11 9 9 8 8 6 5 5 3 3 4
16 19 21 16 21 18 20 20 20 20 17 18 17 14 14 13 11 15 18 22 26 28 28 30 28 27 26 24 22 21 19 19 17 18 17 15 13 12 11 10 9 8 7 6 6 5 3 3 3
10 9 13 16 20 24 24 24 23 19 15 21 24 22 19 18 14 14 18 21 26 28 29 30 29 27 26 22 21 20 18 17 16 16 16 15 13 12 11 10 10 8 7 5 5 4 3 3 3
12 16 16 18 20 22 21 29 35 25 23 19 18 20 20 19 16 15 17 21 25 28 27 28 28 27 25 22 21 19 17 16 16 14 14 14 12 11 10 10 10 9 8 6 4 4 3 2 3
16 16 16 13 7 19 17 28 32 26 25 26 23 20 16 17 17 20 19 23 24 24 26 27 27 27 25 23 21 19 17 16 15 13 12 13 11 10 10 10 10 10 8 7 5 3 3 2 4
13 14 14 14 9 11 20 26 20 21 18 17 19 19 20 20 20 19 21 25 27 26 26 27 27 27 25 22 19 17 15 15 14 13 11 11 10 10 9 9 9 7 8 6 5 5 3 4 6
15 12 13 13 13 14 19 24 20 12 10 15 18 15 15 18 19 20 20 24 28 30 27 26 28 26 25 21 16 15 14 14 13 11 10 9 10 10 10 8 7 6 6 6 4 5 5 6 9
20 20 21 18 11 13 19 20 17 19 21 20 18 16 16 16 14 20 21 26 27 30 29 28 29 27 25 20 18 16 15 15 12 10 10 9 8 8 8 7 4 2 5 8 7 6 8 12 13
22 23 24 21 17 15 22 21 22 20 22 21 20 19 17 15 13 17 23 27 30 32 31 29 29 28 24 19 15 14 14 14 12 10 9 9 9 9 9 9 11 12 9 8 12 15 13 13 13
21 23 23 22 18 18 18 22 25 26 26 23 24 21 18 17 15 18 21 27 30 31 31 30 28 26 22 18 18 16 14 13 12 13 16 14 15 16 15 13 12 15 15 8 11 10 6 7 8
21 18 19 18 13 17 17 19 22 21 25 25 27 23 22 20 16 18 22 24 31 30 29 27 26 24 21 21 19 18 17 17 16 23 22 19 17 16 12 9 14 17 7 6 5 1 4 3 3
18 16 18 16 17 18 24 13 25 19 21 23 26 26 24 21 19 20 23 27 30 29 28 26 25 24 23 19 18 18 24 24 28 28 26 22 17 17 18 18 16 15 12 10 6 3 1 1 1
13 11 10 13 12 14 25 21 23 18 21 24 23 28 25 22 19 20 24 28 29 28 28 27 26 26 24 23 23 25 34 33 31 28 25 21 18 17 20 20 18 14 8 8 7 5 5 4 1
7 6 6 8 8 18 12 16 21 18 16 21 25 26 27 24 20 21 24 23 28 29 28 28 28 27 28 26 25 27 29 28 26 24 20 25 24 17 13 14 13 10 8 10 8 6 5 3 3
17 18 10 7 15 17 21 11 22 28 26 19 21 23 25 23 19 23 24 22 28 30 30 29 31 32 29 28 26 24 24 21 19 18 22 17 13 12 14 12 11 13 13 9 9 5 4 4 2
3 10 16 3 11 9 16 15 20 17 16 25 14 19 24 21 19 24 25 23 30 32 31 33 34 31 29 27 26 25 21 23 22 22 19 17 18 15 13 9 10 12 11 8 7 4 3 2 1
9 6 4 6 7 15 15 19 17 19 18 24 23 17 20 21 22 24 24 20 28 29 31 33 33 33 30 28 27 24 25 28 25 21 20 19 17 14 13 11 12 11 9 5 4 2 2 2 2
5 3 9 10 10 6 13 14 20 19 20 26 24 24 21 23 24 23 19 21 29 29 30 32 31 30 29 25 31 30 28 23 21 21 21 18 16 15 14 12 10 9 6 4 4 3 4 5 4
12 13 16 7 13 12 14 14 21 13 17 25 22 23 25 24 25 21 19 23 27 30 29 27 29 27 26 33 34 32 27 25 24 22 20 18 16 13 13 11 9 7 6 5 5 4 4 4 3
Wind_Direction
237 230 227 226 237 234 244 235 235 242 221 219 276 247 261 341 310 6 134 160 151 156 163 168 172 169 166 166 168 167 165 163 163 160 160 158 156 153 151 149 147 149 152 153 156 160 157 151 149
203 194 205 237 244 229 237 233 206 237 233 211 236 252 252 273 268 143 137 159 160 160 165 168 173 169 165 167 168 168 167 166 165 163 162 161 159 157 155 153 151 154 156 156 160 163 161 157 157
190 205 234 223 234 241 243 219 236 229 198 219 233 248 303 344 52 77 150 163 163 165 165 170 173 171 168 169 171 171 169 167 167 167 165 164 162 161 161 159 159 160 161 159 159 163 165 168 166
185 193 236 241 236 233 252 257 240 229 223 200 254 266 238 63 8 141 155 162 164 165 166 176 174 171 168 171 172 174 171 170 170 170 168 166 164 163 164 165 164 164 167 169 172 172 175 172 164
205 240 236 230 245 248 232 262 220 248 233 223 227 250 232 81 78 143 159 163 166 164 166 168 174 172 170 171 175 175 175 174 174 172 170 168 166 166 167 167 166 166 171 177 181 181 174 176 175
207 247 234 236 238 238 233 242 238 242 230 218 228 247 254 99 137 151 162 166 166 163 163 166 173 174 172 174 175 175 176 177 177 175 172 169 168 169 170 172 175 176 179 183 183 181 181 180 181
241 216 243 247 249 239 224 238 231 232 234 217 226 249 209 174 144 154 161 163 164 163 161 165 168 174 174 175 175 175 178 180 179 175 173 170 171 174 174 177 180 180 180 180 177 181 184 188 196
235 255 251 244 247 244 243 234 233 230 235 244 238 242 234 129 154 155 162 166 166 167 167 167 165 170 169 171 176 174 175 178 176 173 173 172 174 177 177 179 179 174 173 176 175 181 190 202 229
238 238 241 242 240 242 240 236 217 248 238 239 247 241 257 134 158 163 164 171 171 174 172 172 170 170 169 168 172 173 174 174 175 172 175 171 168 171 180 181 186 169 169 167 170 180 203 234 267
227 232 244 253 265 239 256 234 244 222 226 226 231 226 206 175 187 179 179 180 178 178 177 176 174 171 169 168 167 165 171 169 169 171 174 169 174 174 180 179 180 174 177 183 194 205 228 279 264
240 249 257 252 288 249 256 258 234 248 240 221 221 224 198 230 205 197 197 194 185 180 180 179 175 173 172 169 167 169 171 171 174 176 175 175 174 177 176 177 180 185 198 200 208 234 240 259 274
247 263 264 270 233 247 258 264 255 245 247 246 232 254 277 262 220 218 203 199 189 183 183 181 177 175 175 172 173 173 172 173 177 180 178 177 177 178 182 184 184 189 197 200 209 212 235 258 280
250 256 265 244 258 260 262 257 256 251 250 263 268 259 248 242 251 223 220 203 194 186 183 186 181 178 175 174 176 177 177 176 176 177 181 181 186 187 187 189 192 197 201 204 209 218 244 266 281
296 283 280 271 260 255 255 259 262 242 240 248 255 254 250 245 236 232 216 209 197 191 188 186 183 179 176 177 177 178 179 179 178 179 183 183 186 188 192 195 200 204 204 201 209 221 244 268 312
273 271 264 249 245 247 252 254 247 247 252 261 254 248 248 247 243 239 215 207 205 195 183 185 181 180 180 177 176 178 182 181 184 184 183 185 186 191 194 200 203 204 199 201 221 234 246 290 336
256 258 267 257 260 239 228 252 249 239 240 242 247 246 245 238 230 229 233 209 206 194 178 182 183 180 181 181 179 182 184 186 187 186 186 188 190 189 194 202 204 199 202 209 211 202 152 67 9
234 259 251 253 218 250 216 251 262 248 221 241 241 244 241 241 239 230 238 203 192 196 178 181 185 181 181 181 181 183 185 187 188 186 186 190 191 194 192 198 192 202 200 194 166 129 114 57 354
267 237 242 253 263 224 244 248 263 264 231 232 240 241 246 241 239 223 214 197 188 191 184 184 185 182 180 177 174 181 183 186 184 184 182 183 190 191 190 188 191 193 184 168 158 137 77 49 360
272 275 269 269 267 263 266 275 270 248 249 245 250 243 248 237 238 223 197 192 186 186 182 183 181 179 173 173 179 179 178 175 175 174 172 173 178 182 185 193 163 165 132 100 97 75 44 26 5
262 261 262 265 260 260 265 266 257 253 251 257 250 243 242 242 228 219 187 192 187 184 181 185 181 175 174 176 175 174 171 167 162 157 154 153 152 148 146 135 126 111 97 92 76 56 38 16 338
251 252 262 270 273 254 260 268 262 252 245 246 249 251 246 242 224 200 190 190 188 182 178 184 177 168 169 166 153 147 140 132 139 138 131 123 122 125 124 125 121 123 106 33 41 24 10 323 9
255 258 266 269 263 255 234 258 255 248 234 229 239 234 234 230 227 206 191 188 184 178 178 176 171 160 165 164 154 152 161 140 139 144 140 131 129 138 142 164 164 160 160 134 151 102 290 285 253
270 290 276 263 247 262 251 245 257 248 236 230 224 225 227 225 213 209 193 182 178 175 170 168 161 162 160 157 150 144 126 128 128 132 135 134 142 152 156 147 146 131 123 117 109 95 205 79 197
270 290 255 225 238 242 236 234 258 250 234 227 220 216 217 216 208 206 189 178 177 168 160 156 159 161 158 155 144 145 140 139 135 140 144 146 143 142 148 145 139 130 108 95 102 130 134 122 122
197 188 211 198 202 237 229 217 237 249 244 232 218 212 207 206 201 196 182 179 166 161 158 154 153 152 156 150 147 148 149 153 155 153 152 147 144 144 141 144 138 127 120 122 123 133 116 99 72
214 212 229 226 217 245 215 231 230 231 240 267 236 218 203 196 192 193 178 168 159 155 155 145 149 146 149 154 152 151 149 151 148 144 147 150 134 135 145 133 132 131 129 124 124 114 120 108 87
150 216 242 293 282 289 263 224 242 260 240 234 230 218 201 183 194 180 171 157 155 157 145 153 147 145 149 149 145 145 148 142 139 141 145 140 140 128 127 127 115 114 114 113 113 124 121 132 135
216 347 193 202 247 245 248 238 251 223 221 214 219 225 196 178 188 175 159 152 151 145 151 146 145 146 146 142 140 140 146 140 141 140 138 135 131 130 130 120 118 111 111 113 108 119 131 135 122
175 213 228 268 248 259 267 258 268 217 216 203 203 203 182 177 170 160 128 131 138 142 140 140 141 139 142 134 137 138 131 129 135 135 137 134 129 130 126 120 115 106 103 105 105 114 116 102 83
234 222 226 233 228 239 268 269 328 184 232 191 207 193 182 172 157 124 125 135 131 127 130 132 134 131 121 128 127 124 127 128 129 126 125 127 126 124 119 116 110 106 105 101 107 111 103 84 73